Location: Poughquag
(41.6090°N, 73.6820°W)
Time: 11:27:30
(UTC-05:00)

N. Korean satellite - Pass Details

Date: 24 January 2020
Orbit: 456 x 505 km, 97.2° (Epoch: 24 February)

Event Time Altitude Azimuth Distance (km) Brightness Sun altitude
Rises 05:52:06 0° 9° (N) 2,534 10.2 -15.3°
Reaches altitude 10° 05:54:09 10° 7° (N) 1,659 9.2 -14.9°
Maximum altitude 05:57:43 71° 283° (WNW) 517 6.4 -14.3°
Drops below altitude 10° 06:01:17 10° 200° (SSW) 1,673 9.2 -13.6°
Sets 06:03:22 0° 198° (SSW) 2,558 10.2 -13.3°
